sat.trackr.live / text

‹ back to catalog

STARLINK-2622

NORAD 48360 · 2021-038H

PAYLOAD ACTIVE UNKNOWN

§ Identity

Operator
Country
US
Launch date
2021-05-04
Launch site
AFETR
Launch vehicle
Mass (kg)
RCS (m²)

Purposes: comms

External: N2YO · Heavens-Above · Gunter

§ Orbital elements

Epoch: 2026-05-24T23:58:14.059776Z

Period
94.01 min
Inclination
53.1618°
Eccentricity
0.0001275
Mean motion
15.31705748 rev/d
Perigee alt
469.8 km
Apogee alt
471.6 km
Semi-major
6,848.9 km
B*
5.5090e-5
RAAN
3.2371°
Arg perigee
91.7369°
Mean anomaly
268.3779°
Rev number
27,876

§ Raw data

STARLINK-26221 48360U 21038H   26144.99877384  .00001345  00000+0  55090-4 0  99922 48360  53.1618   3.2371 0001275  91.7369 268.3779 15.31705748278766

JSON: /api/v1/satellites/48360 · /tle

For live sub-satellite position, see the globe view (requires WebGL).

§ Visibility from observer

Set your observer location to see the next 7 days of passes ≥ 10°. The values pass through the URL so the page stays shareable.

No JS? Fill the form by hand. The geolocation button needs JavaScript.